Weather reports worldwide

Advertisment
Arkona, Germany (10091): temperature & dewpoint: 08.07.2020 12:00:00 - 14.07.2020 12:00:00 (CEST)Arkona, Germany (10091): temperature 5cm & temperature -5cm: 08.07.2020 12:00:00 - 14.07.2020 12:00:00 (CEST)Arkona, Germany (10091): temperature -20cm & temperature -100cm: 08.07.2020 12:00:00 - 14.07.2020 12:00:00 (CEST)Arkona, Germany (10091): water temperature: 08.07.2020 12:00:00 - 14.07.2020 12:00:00 (CEST)Arkona, Germany (10091): wind speed & gusts: 08.07.2020 12:00:00 - 14.07.2020 12:00:00 (CEST)Arkona, Germany (10091): wind direction: 08.07.2020 12:00:00 - 14.07.2020 12:00:00 (CEST)Arkona, Germany (10091): reduced air pressure: 08.07.2020 12:00:00 - 14.07.2020 12:00:00 (CEST)Arkona, Germany (10091): visibility: 08.07.2020 12:00:00 - 14.07.2020 12:00:00 (CEST)Arkona, Germany (10091): sunshine duration: 08.07.2020 12:00:00 - 14.07.2020 12:00:00 (CEST)Arkona, Germany (10091): precipitation: 08.07.2020 12:00:00 - 14.07.2020 12:00:00 (CEST)
Date & Time tt [°C] td [°C] tt 5cm [°C] tt -5cm [°C] tt -20cm [°C] tt -100cm [°C] tw [°C] ff [km/h] ff [kn] fx [km/h] fx [kn] dd ppp [hPa] vv [km] sd [min] rr [mm]
14.07.2020 12:00:00 19,8 15,5 23,9 27,6 18,2 16,1 16,2 15 8 20 11 ESE 1015,0 38 60 0,0
14.07.2020 11:00:00 19,4 13,5 22,2 24,7 17,4 16,1 16,1 10 5 19 11 SE 1015,4 50 60 0,0
14.07.2020 10:00:00 18,5 13,0 20,9 21,6 16,9 16,1 16,0 15 8 26 14 S 1015,8 34 60 0,0
14.07.2020 09:00:00 17,3 12,1 18,7 18,3 16,6 16,1 15,9 18 10 26 14 S 1016,2 40 54 0,0
14.07.2020 08:00:00 15,7 11,8 15,9 15,9 16,7 16,0 15,9 19 11 25 13 S 1016,7 46 49 0,0
14.07.2020 07:00:00 15,1 12,1 14,7 14,3 16,8 16,0 15,9 20 11 26 14 S 1017,0 39 48 0,0
14.07.2020 06:00:00 13,2 11,9 12,3 13,9 17,1 16,0 15,9 20 11 25 14 SSW 1017,4 39 0 0,0
14.07.2020 05:00:00 12,6 11,7 11,4 14,0 17,5 16,0 16,0 17 9 23 12 SSW 1017,8 36 0 0,0
14.07.2020 04:00:00 13,0 11,6 11,8 14,3 17,8 16,0 16,1 18 10 23 12 SSW 1018,2 50 0 0,0
14.07.2020 03:00:00 12,6 11,3 10,9 14,9 18,2 16,0 16,0 17 9 21 11 SSW 1018,4 44 0 0,0
14.07.2020 02:00:00 14,2 13,5 13,2 15,1 18,6 16,0 16,1 15 8 18 10 S 1018,8 39 0 0,0
14.07.2020 01:00:00 12,8 11,9 10,5 15,6 19,0 16,0 16,0 14 7 14 8 SSW 1019,2 42 0 0,0
14.07.2020 00:00:00 13,2 11,4 11,2 16,5 19,5 16,0 15,9 13 7 13 7 SW 1019,5 54 0 0,0
13.07.2020 23:00:00 14,2 11,6 12,5 17,5 19,9 16,1 15,9 10 6 11 6 W 1019,9 65 0 0,0
13.07.2020 22:00:00 14,4 11,9 13,0 18,8 20,3 16,1 15,9 9 5 16 9 W 1020,2 60 20 0,0
13.07.2020 21:00:00 15,7 12,0 15,1 20,3 20,6 16,1 16,0 11 6 22 12 W 1020,2 53 43 0,0
13.07.2020 20:00:00 16,4 11,2 16,6 21,9 20,7 16,1 16,0 18 10 31 17 W 1020,5 57 53 0,0
13.07.2020 19:00:00 17,1 10,3 18,2 23,7 20,7 16,1 16,0 23 12 32 18 W 1020,8 70 60 0,0
13.07.2020 18:00:00 17,3 10,9 18,9 24,8 20,5 16,1 16,0 25 13 39 21 W 1021,2 58 60 0,0
13.07.2020 17:00:00 17,2 11,0 20,0 25,5 20,2 16,1 15,9 26 14 38 21 W 1021,8 51 37 0,0
13.07.2020 16:00:00 17,1 11,6 19,4 26,2 19,8 16,1 15,9 28 15 41 22 W 1022,2 57 42 0,0
13.07.2020 15:00:00 16,5 12,0 20,2 26,2 19,1 16,1 15,8 20 11 32 17 W 1022,7 48 41 0,0
13.07.2020 14:00:00 16,4 11,6 20,7 26,5 18,4 16,1 15,6 16 9 30 16 WNW 1022,9 58 37 0,0
13.07.2020 13:00:00 15,7 11,3 18,1 26,2 17,6 16,1 - 17 9 32 17 WNW 1023,4 49 52 0,0
13.07.2020 12:00:00 16,2 11,6 19,9 24,1 16,9 16,1 15,6 19 10 41 22 WNW 1023,8 43 53 0,0
13.07.2020 11:00:00 16,0 11,4 18,1 21,0 16,4 16,1 15,6 27 15 42 23 W 1023,8 52 39 0,0
13.07.2020 10:00:00 15,0 10,9 17,4 19,5 16,0 16,1 15,6 28 15 39 21 W 1024,1 49 47 0,0
13.07.2020 09:00:00 14,8 11,0 16,6 16,8 15,8 16,1 15,5 25 14 36 20 W 1024,2 66 36 0,0
13.07.2020 08:00:00 14,3 10,3 14,6 15,4 15,8 16,1 15,5 26 14 39 21 W 1024,3 46 42 0,0
13.07.2020 07:00:00 14,2 10,2 14,3 14,0 15,9 16,1 15,5 23 12 39 21 WNW 1024,1 49 36 0,0
13.07.2020 06:00:00 13,8 11,0 13,1 13,6 16,1 16,1 15,5 24 13 38 21 W 1024,0 49 6 0,0
13.07.2020 05:00:00 14,0 11,3 13,5 13,8 16,3 16,1 15,5 26 14 39 21 W 1024,1 45 0 0,0
13.07.2020 04:00:00 14,2 12,0 13,2 13,9 16,6 16,1 15,5 25 13 38 21 W 1024,3 45 0 0,0
13.07.2020 03:00:00 14,5 11,9 13,6 14,3 16,9 16,1 15,4 29 16 40 22 W 1024,3 42 0 0,0
13.07.2020 02:00:00 15,0 12,0 14,2 14,9 17,1 16,1 15,5 29 15 39 21 W 1024,4 44 0 0,0
13.07.2020 01:00:00 15,1 12,1 14,1 15,2 17,4 16,2 15,5 24 13 34 19 W 1024,6 41 0 0,0
13.07.2020 00:00:00 15,1 12,0 14,0 15,8 17,7 16,2 15,5 24 13 45 24 W 1024,6 48 0 0,0
12.07.2020 23:00:00 15,5 11,8 15,2 16,4 17,9 16,2 15,5 27 15 44 24 W 1024,8 54 0 0,0
12.07.2020 22:00:00 15,4 11,7 15,1 16,7 18,3 16,2 15,6 29 15 43 23 W 1024,8 45 0 0,0
12.07.2020 21:00:00 15,0 10,8 14,4 17,6 18,5 16,2 15,6 31 17 51 27 W 1024,7 58 44 0,0
12.07.2020 20:00:00 15,6 10,3 16,0 19,3 18,7 16,2 15,6 37 20 53 28 W 1024,8 52 31 0,0
12.07.2020 19:00:00 15,4 10,6 16,1 19,8 18,8 16,2 - 36 19 56 30 W 1025,0 52 0 0,0
12.07.2020 18:00:00 15,4 10,6 16,1 21,4 18,6 16,2 15,6 39 21 54 29 W 1025,1 48 12 0,0
12.07.2020 17:00:00 16,3 10,9 18,5 23,7 18,2 16,2 15,6 41 22 55 30 W 1025,1 75 54 0,0
12.07.2020 16:00:00 16,0 9,7 18,1 23,6 17,7 16,2 15,6 37 20 53 28 W 1025,3 70 24 0,0
12.07.2020 15:00:00 16,4 10,1 19,5 24,4 17,1 16,3 15,6 36 19 50 27 W 1025,3 54 47 0,0
12.07.2020 14:00:00 15,6 9,8 17,7 22,7 16,4 16,3 15,6 36 19 50 27 W 1025,4 45 31 0,0
12.07.2020 13:00:00 15,8 9,7 18,6 21,3 15,8 16,3 15,6 35 19 49 26 W 1025,2 43 35 0,0
12.07.2020 12:00:00 15,6 9,4 18,5 19,8 15,3 16,3 15,5 35 19 49 26 W 1025,0 45 37 0,0
12.07.2020 11:00:00 15,0 9,7 16,5 18,7 14,8 16,3 15,5 29 16 43 23 W 1024,9 60 48 0,0
12.07.2020 10:00:00 14,8 10,5 17,0 16,2 14,6 16,3 15,5 29 15 38 20 W 1024,8 36 25 0,0
12.07.2020 09:00:00 13,9 10,4 14,3 14,4 14,4 16,3 15,5 25 14 39 21 W 1024,6 41 0 0,0
12.07.2020 08:00:00 13,8 10,1 14,2 13,8 14,4 16,3 15,5 24 13 - - W 1024,3 48 22 0,0
12.07.2020 07:00:00 13,9 9,1 14,0 12,3 14,5 16,3 15,5 23 13 37 20 W 1023,8 40 55 0,0
12.07.2020 06:00:00 13,0 8,7 11,9 11,5 14,7 16,3 15,4 21 12 38 20 WNW 1023,6 51 26 0,0
12.07.2020 05:00:00 13,1 8,8 11,9 11,6 14,9 16,4 15,4 25 13 39 21 W 1023,3 54 0 0,0
12.07.2020 04:00:00 13,0 8,9 11,8 11,9 15,2 16,4 15,4 23 12 40 21 WNW 1023,2 47 0 0,0
12.07.2020 03:00:00 13,7 8,9 12,4 12,3 15,4 16,4 15,5 26 14 45 24 W 1023,0 55 0 0,0
12.07.2020 02:00:00 14,2 9,2 13,2 12,5 15,7 16,4 15,5 30 16 49 27 W 1022,9 48 0 0,0
12.07.2020 01:00:00 14,4 9,1 13,3 12,7 16,0 16,4 15,5 30 16 45 24 W 1022,8 48 0 0,0
12.07.2020 00:00:00 14,9 8,9 13,7 13,1 16,4 16,4 15,6 29 16 42 23 W 1022,7 56 0 0,0
11.07.2020 23:00:00 15,0 8,2 13,7 13,6 16,8 16,4 15,6 29 16 43 23 W 1022,5 52 0 0,0
11.07.2020 22:00:00 15,5 8,4 14,7 14,6 17,1 16,5 15,6 32 17 43 23 W 1022,3 54 8 0,0
11.07.2020 21:00:00 15,6 9,1 14,6 15,7 17,4 16,5 15,6 24 13 40 22 W 1021,9 49 49 0,0
11.07.2020 20:00:00 15,6 10,2 15,7 17,6 17,5 16,5 15,5 24 13 34 18 W 1021,6 75 57 0,0
11.07.2020 19:00:00 13,4 9,6 12,0 17,8 17,5 16,5 15,5 31 17 49 26 W 1021,4 23 27 0,4
11.07.2020 18:00:00 16,6 9,7 18,4 19,9 17,3 16,5 15,5 34 18 51 27 WSW 1021,1 46 60 0,0
11.07.2020 17:00:00 16,9 8,6 19,0 20,1 17,0 16,5 15,5 37 20 54 29 WSW 1020,9 75 60 0,0
11.07.2020 16:00:00 16,8 9,5 19,0 20,4 16,7 16,5 15,5 40 21 54 29 WSW 1020,8 75 51 0,0
11.07.2020 15:00:00 15,9 8,1 17,4 19,4 16,4 16,6 15,4 40 21 55 30 W 1020,6 57 29 0,0
11.07.2020 14:00:00 15,5 9,3 16,4 19,8 16,1 16,6 15,4 38 20 51 28 W 1020,2 56 43 0,0
11.07.2020 13:00:00 15,8 9,7 17,6 19,6 15,6 16,6 15,5 37 20 48 26 W 1019,9 46 40 0,0
11.07.2020 12:00:00 15,4 7,5 17,2 19,4 15,1 16,6 15,5 38 20 51 27 W 1019,6 48 60 0,0
11.07.2020 11:00:00 15,1 9,1 17,0 17,9 14,6 16,6 15,5 36 20 52 28 W 1019,1 48 55 0,0
11.07.2020 10:00:00 14,4 9,3 15,9 16,5 14,3 16,6 15,5 41 22 53 28 W 1018,4 47 57 0,0
11.07.2020 09:00:00 14,2 9,4 15,0 14,6 14,0 16,6 15,7 37 20 52 28 W 1017,6 51 49 0,0
11.07.2020 08:00:00 14,0 9,3 14,4 13,3 14,0 16,6 15,7 40 22 53 29 W 1017,0 43 56 0,0
11.07.2020 07:00:00 13,1 9,4 12,7 11,9 14,0 16,7 15,7 37 20 53 28 W 1016,4 43 17 0,0
11.07.2020 06:00:00 12,8 8,8 12,2 11,4 14,2 16,7 15,7 33 18 51 27 W 1015,7 58 4 0,0
11.07.2020 05:00:00 12,4 8,6 11,6 11,3 14,4 16,7 15,6 34 18 50 27 W 1015,3 48 0 0,0
11.07.2020 04:00:00 12,7 8,8 11,9 11,5 14,5 16,7 15,6 34 18 53 28 W 1015,0 52 0 0,0
11.07.2020 03:00:00 13,0 9,4 12,4 11,9 14,7 16,7 15,6 37 20 50 27 W 1014,6 51 0 0,0
11.07.2020 02:00:00 13,3 9,6 12,6 11,9 14,9 16,7 15,6 40 21 55 30 W 1014,0 50 0 0,0
11.07.2020 01:00:00 13,6 9,2 12,7 12,0 15,1 16,7 15,6 39 21 55 30 W 1013,2 54 0 0,0
11.07.2020 00:00:00 13,6 9,4 12,8 12,4 15,4 16,7 15,6 40 22 55 30 W 1012,4 54 0 0,0
10.07.2020 23:00:00 12,9 9,9 11,9 12,6 15,6 16,7 15,6 26 14 45 24 W 1012,1 55 0 0,0
10.07.2020 22:00:00 13,8 9,2 12,9 13,3 15,9 16,8 - 35 19 46 25 W 1011,9 64 0 0,0
10.07.2020 21:00:00 13,1 9,1 12,2 14,1 16,0 16,8 15,6 33 18 45 25 W 1011,3 62 20 0,0
10.07.2020 20:00:00 13,3 9,0 12,5 15,5 15,9 16,8 15,7 26 14 41 22 NW 1010,9 58 35 0,0
10.07.2020 19:00:00 13,2 10,2 13,6 16,0 15,9 16,8 15,6 21 11 36 19 NW 1010,0 71 23 0,0
10.07.2020 18:00:00 12,2 11,3 12,6 14,9 16,0 16,8 15,7 15 8 46 25 N 1008,5 30 0 0,4
10.07.2020 17:00:00 12,9 10,6 12,9 14,9 16,0 16,8 15,7 16 8 54 29 N 1007,5 57 0 0,0
10.07.2020 16:00:00 12,4 11,5 12,7 15,1 16,1 16,8 15,8 25 14 50 27 NNE 1006,4 34 0 2,4
10.07.2020 15:00:00 11,7 11,0 11,8 15,2 16,2 16,8 15,8 20 11 44 24 NNE 1006,7 4,1 0 1,9
10.07.2020 14:00:00 12,1 11,8 12,6 15,6 16,2 16,8 15,8 23 12 37 20 NNE 1006,5 3,0 0 3,3
10.07.2020 13:00:00 12,2 11,7 12,8 15,7 16,2 16,8 15,8 22 12 35 19 ENE 1006,7 2,7 0 1,0
10.07.2020 12:00:00 12,4 11,5 12,9 16,3 16,0 16,8 15,8 13 7 33 18 ENE 1007,1 5 0 2,0
10.07.2020 11:00:00 13,5 11,8 14,1 16,7 15,8 16,8 15,8 14 8 30 16 ENE 1007,8 26 0 0,2
10.07.2020 10:00:00 13,1 11,3 13,5 15,6 15,7 16,8 15,8 13 7 23 12 ENE 1008,8 23 0 0,4
10.07.2020 09:00:00 12,7 11,4 12,7 14,7 15,7 16,8 15,7 8 5 18 10 ENE 1009,4 31 0 0,9
10.07.2020 08:00:00 12,9 10,8 12,5 14,4 15,7 16,8 15,7 6 3 13 7 ENE 1009,7 23 0 0,1
10.07.2020 07:00:00 13,3 11,0 13,2 13,7 15,8 16,9 15,7 5 3 13 7 ENE 1009,7 66 0 0,0
10.07.2020 06:00:00 12,9 9,4 11,4 12,9 16,0 16,9 15,7 5 3 9 5 N 1009,8 65 12 0,0
10.07.2020 05:00:00 12,8 9,1 11,2 12,8 16,3 16,9 15,7 5 3 12 6 N 1010,1 75 0 0,0
10.07.2020 04:00:00 12,8 9,0 10,8 13,0 16,5 16,9 15,7 6 3 13 7 NNW 1010,6 75 0 0,0
10.07.2020 03:00:00 12,8 9,7 11,4 13,4 16,8 16,9 15,7 8 4 19 11 N 1010,5 67 0 0,0
10.07.2020 02:00:00 12,5 9,7 10,8 14,3 17,0 16,9 15,7 6 4 16 9 N 1010,9 72 0 0,0
10.07.2020 01:00:00 12,4 11,7 12,4 14,8 17,3 16,9 15,8 11 6 21 11 NNE 1011,0 45 0 0,0
10.07.2020 00:00:00 12,3 12,0 12,4 15,1 17,5 16,9 15,8 9 5 23 13 NE 1011,0 35 0 0,1
09.07.2020 23:00:00 12,2 11,8 12,4 15,3 17,8 16,9 15,8 16 8 24 13 ENE 1010,7 6 0 0,5
09.07.2020 22:00:00 12,5 12,2 12,6 15,5 18,0 16,9 16,0 14 7 31 17 NE 1010,8 6 0 0,3
09.07.2020 21:00:00 12,8 12,2 12,6 16,0 18,3 16,9 16,2 20 11 32 17 NE 1010,7 17 0 0,3
09.07.2020 20:00:00 12,7 12,2 12,9 16,8 18,6 16,9 16,6 21 11 29 16 NE 1010,4 3,9 0 1,2
09.07.2020 19:00:00 13,1 12,3 13,3 17,6 18,8 16,9 16,7 15 8 27 14 ENE 1010,8 11 0 1,0
09.07.2020 18:00:00 13,9 12,4 14,2 19,0 18,9 16,9 16,5 17 9 28 15 ENE 1011,4 23 0 0,1
09.07.2020 17:00:00 13,8 12,3 14,6 19,6 18,9 16,9 16,5 15 8 24 13 ENE 1012,1 28 0 0,3
09.07.2020 16:00:00 13,6 12,2 14,1 20,0 18,9 16,9 16,6 12 6 19 10 ENE 1013,0 28 0 0,7
09.07.2020 15:00:00 13,4 11,3 13,7 19,9 18,9 16,9 16,7 8 4 12 7 NNE 1013,5 21 0 1,0
09.07.2020 14:00:00 14,9 10,1 14,7 21,6 18,6 17,0 16,6 4 2 11 6 NE 1013,9 30 0 0,0
09.07.2020 13:00:00 15,6 9,5 18,7 22,7 18,1 17,0 16,3 6 3 13 7 N 1014,1 75 0 0,0
09.07.2020 12:00:00 15,7 8,5 18,8 23,8 17,4 17,0 16,1 4 2 16 8 NW 1014,3 75 41 0,0
09.07.2020 11:00:00 15,7 8,7 18,8 20,2 17,0 17,0 15,9 6 4 18 10 S 1014,7 42 14 0,0
09.07.2020 10:00:00 14,4 9,5 15,8 18,8 16,7 17,0 15,9 11 6 16 9 WNW 1014,9 51 20 0,0
09.07.2020 09:00:00 14,5 9,3 15,6 17,5 16,6 17,0 15,8 9 5 18 10 WNW 1015,1 49 12 0,0
09.07.2020 08:00:00 13,8 9,4 14,2 16,5 16,5 17,0 15,8 10 5 18 10 WNW 1015,0 53 44 0,0
09.07.2020 07:00:00 14,1 9,6 14,3 14,5 16,6 17,0 15,8 12 6 21 11 W 1014,8 73 54 0,0
09.07.2020 06:00:00 12,9 9,7 12,2 13,7 16,8 17,0 15,8 14 8 22 12 W 1015,0 64 3 0,0
09.07.2020 05:00:00 12,3 9,2 11,8 13,7 17,1 17,0 15,8 13 7 23 12 W 1014,6 50 0 0,0
09.07.2020 04:00:00 12,7 8,9 11,8 13,8 17,4 17,0 15,8 14 8 26 14 W 1014,8 58 0 0,0
09.07.2020 03:00:00 13,5 8,8 12,5 14,1 17,8 17,0 15,8 17 9 32 17 W 1014,7 60 0 0,0
09.07.2020 02:00:00 13,8 7,5 12,8 14,5 18,1 17,0 15,9 25 13 34 19 W 1014,8 65 0 0,0
09.07.2020 01:00:00 13,7 9,1 12,6 15,2 18,5 17,0 15,9 23 12 34 19 W 1014,8 57 0 0,0
09.07.2020 00:00:00 14,1 9,0 13,5 15,4 19,0 17,0 15,9 22 12 33 18 W 1014,9 61 0 0,0
08.07.2020 23:00:00 14,3 8,3 13,2 16,4 19,4 17,1 15,9 24 13 35 19 W 1014,5 68 0 0,0
08.07.2020 22:00:00 14,5 8,9 14,0 17,7 19,8 17,1 15,8 22 12 37 20 W 1014,3 64 18 0,0
08.07.2020 21:00:00 15,3 8,1 14,5 19,3 20,0 17,1 15,8 22 12 34 18 W 1013,8 53 41 0,0
08.07.2020 20:00:00 15,8 9,0 16,8 21,3 20,0 17,1 15,8 25 13 37 20 WSW 1013,5 47 48 0,0
08.07.2020 19:00:00 16,3 8,0 17,4 22,8 19,9 17,1 15,8 28 15 44 24 W 1013,4 59 59 0,0
08.07.2020 18:00:00 16,8 7,9 19,2 24,1 19,5 17,1 15,8 30 16 45 24 W 1013,2 53 60 0,0
08.07.2020 17:00:00 16,6 8,1 19,5 24,5 19,0 17,1 15,8 30 16 43 23 W 1013,1 61 60 0,0
08.07.2020 16:00:00 16,1 7,3 19,3 24,5 18,4 17,1 15,8 33 18 48 26 W 1013,3 69 58 0,0
08.07.2020 15:00:00 15,7 7,6 18,6 23,1 17,9 17,1 15,8 33 18 48 26 W 1013,1 75 52 0,0
08.07.2020 14:00:00 14,4 7,9 15,3 19,9 17,5 17,1 15,8 35 19 51 28 W 1012,9 51 16 0,0
08.07.2020 13:00:00 15,0 7,7 17,3 21,6 17,0 17,1 15,8 37 20 50 27 W 1012,8 46 57 0,0
08.07.2020 12:00:00 15,6 8,4 17,9 19,4 16,6 17,1 15,8 34 18 48 26 W 1012,4 61 52 0,0

tt = temperature
td = dewpoint
tt 5cm = temperature 5cm
tt -5cm = temperature -5cm
tt -20cm = temperature -20cm
tt -100cm = temperature -100cm
tw = water temperature
ff = wind speed
fx = gusts
dd = wind direction
ppp = reduced air pressure
vv = visibility
sd = sunshine duration
rr = precipitation

Next stations